Location: *
(46.1866°S, 178.5290°W)
Time: 13:25:20
(UTC+00:00)

Molniya-3 - Pass Details

Date: 19 May 2021
Orbit: 469 x 19763 km, 62.8° (Epoch: 21 June)

Event Time Altitude Azimuth Distance (km) Brightness Sun altitude
Rises 06:38:39 0° 223° (SW) 3,068 8.1 -22.4°
Reaches altitude 10° 06:41:05 10° 227° (SW) 1,795 6.9 -22.8°
Maximum altitude 06:44:12 56° 306° (NW) 582 4.1 -23.3°
Enters shadow 06:44:27 53° 330° (NNW) 602 4.1 -23.4°
